Location: Berduj
(43.0019°N, 22.3781°E)
Time: 03:27:11
(UTC+00:00)

CENTAUR R/B - Pass Details

Date: 19 October 2019
Orbit: 781 x 1407 km, 63.4° (Epoch: 10 November)

Event Time Altitude Azimuth Distance (km) Brightness Sun altitude
Rises 16:32:08 0° 156° (SSE) 3,388 5.1 -9.9°
Reaches altitude 10° 16:35:56 10° 129° (SE) 2,559 4.3 -10.6°
Maximum altitude 16:38:33 13° 102° (ESE) 2,420 4.0 -11.0°
Enters shadow 16:38:43 13° 101° (E) 2,427 4.0 -11.1°
